Reflectivity
-20 -20 -20 -20 -20 -20 -20 -20 -20 -20 -20 -20 -20 -20 -20 -20 -20 -20 -20 -20 -20 -20 -20 -20 -20 -20 -20 -20 -17 -20 -7 -5 18 16 37 23 21 37 44 29 8 -12 -14
-20 -20 -20 -20 -20 -20 -20 -20 -20 -20 -20 -20 -20 -20 -20 -20 -20 -20 -20 -20 -20 -20 -20 -20 -20 -20 -20 -20 -20 -20 -20 -5 -10 5 27 25 30 32 37 35 14 7 -19
-20 -20 -20 -20 -20 -20 -20 -20 -20 -20 -20 -20 -20 -20 -20 -20 -20 -20 -20 -20 -20 -20 -20 -20 -20 -20 -20 -20 -20 -20 -20 -5 -6 3 26 10 30 32 41 35 19 -0 4
-20 -20 -20 -20 -20 -20 -20 -20 -20 -20 -20 -20 -20 -20 -20 -20 -20 -20 -20 -20 -20 -20 -20 -20 -20 -20 -20 -20 -20 -20 -20 -10 -19 -5 17 15 27 33 36 41 33 11 7
-20 -20 -20 -20 -20 -20 -20 -20 -20 -20 -20 -20 -20 -20 -20 -20 -20 -20 -20 -20 -20 -20 -20 -20 -20 -20 -20 -20 -20 -20 -20 -8 -12 -3 11 24 32 33 33 42 40 33 22
-20 -20 -20 -20 -20 -20 -20 -20 -20 -20 -20 -20 -20 -20 -20 -20 -20 -20 -20 -20 -20 -20 -20 -20 -20 -20 -20 -20 -20 -20 -20 -19 -14 -7 11 17 27 24 31 33 36 35 28
-20 -20 -20 -20 -20 -20 -20 -20 -20 -20 -20 -20 -20 -20 -20 -20 -20 -20 -20 -20 -20 -20 -20 -20 -20 -20 -20 -20 -20 -20 -20 -20 -5 -11 6 12 28 17 31 33 29 38 27
-20 -20 -20 -20 -20 -20 -20 -20 -20 -20 -20 -20 -20 -20 -20 -20 -20 -20 -20 -20 -20 -20 -20 -20 -20 -20 -20 -20 -20 -20 -20 -20 -18 -13 5 12 26 22 27 33 31 40 36
-20 -20 -20 -20 -20 -20 -20 -20 -20 -20 -20 -20 -20 -20 -20 -20 -20 -20 -20 -20 -20 -20 -20 -20 -20 -20 -20 -20 -20 -20 -20 -20 -20 -20 -16 3 19 24 28 22 31 33 34
-20 -20 -20 -20 -20 -20 -20 -20 -20 -20 -20 -20 -20 -20 -20 -20 -20 -20 -20 -20 -20 -20 -20 -20 -20 -20 -20 -20 -20 -20 -20 -20 -20 -20 -20 -4 11 22 25 25 20 35 36
-20 -20 -20 -20 -20 -20 -20 -20 -20 -20 -20 -20 -20 -20 -20 -20 -20 -20 -20 -20 -20 -20 -20 -20 -20 -20 -20 -20 -20 -20 -20 -20 -20 -20 -20 -19 5 20 15 24 21 19 29
-20 -20 -20 -20 -20 -20 -20 -20 -20 -20 -20 -20 -20 -20 -20 -20 -20 -20 -20 -20 -20 -20 -20 -20 -20 -20 -20 -20 -20 -20 -20 -20 -20 -20 -20 -20 -7 10 13 11 7 20 18
-20 -20 -20 -20 -20 -20 -20 -20 -20 -20 -20 -20 -20 -20 -20 -20 -20 -20 -20 -20 -20 -20 -20 -20 -20 -20 -20 -20 -20 -20 -20 -20 -20 -20 -20 -20 -20 4 0 14 21 14 -6
-20 -20 -20 -20 -20 -20 -20 -20 -20 -20 -20 -20 -20 -20 -20 -20 -20 -20 -20 -20 -20 -20 -20 -20 -20 -20 -20 -20 -20 -20 -20 -20 -20 -20 -20 -20 -20 -18 -2 16 15 -2 27
-20 -20 -20 -20 -20 -20 -20 -20 -20 -20 -20 -20 -20 -20 -20 -20 -20 -20 -20 -20 -20 -20 -20 -20 -20 -20 -20 -20 -20 -20 -20 -20 -20 -20 -20 -20 -20 -20 -20 -11 -1 17 29
-20 -20 -20 -20 -20 -20 -20 -20 -20 -20 -20 -20 -20 -20 -20 -20 -20 -20 -20 -20 -20 -20 -20 -20 -20 -20 -20 -20 -20 -20 -20 -20 -20 -20 -20 -20 -20 -20 -20 -17 1 -0 18
-20 -20 -20 -20 -20 -20 -20 -20 -20 -20 -20 -20 -20 -20 -20 -20 -20 -20 -20 -20 -20 -20 -20 -14 -20 -18 -20 -20 -20 -14 -20 -20 -20 -20 -20 -20 -20 -20 -20 -20 -5 17 31
-20 -20 -20 -20 -20 -20 -20 -20 -20 -20 -20 -20 -20 -20 -20 -20 -20 -20 -20 -20 -20 -20 -11 1 1 -12 -20 0 -1 1 -12 -20 -20 -20 -20 -20 -20 -20 -20 -20 -11 4 14
-20 -20 -20 -20 -20 -20 -20 -20 -20 -20 -20 -20 -20 -20 -20 -20 -20 -20 -20 -20 -20 -20 -20 -17 1 -1 -20 1 10 6 -19 -20 -20 -20 -20 -20 -20 -20 -20 -20 -18 -14 15
-20 -20 -20 -20 -20 -20 -20 -20 -20 -20 -20 -20 -20 -20 -20 -20 -20 -20 -20 -20 -20 -6 -1 1 -1 -19 -20 -14 2 8 5 1 -20 -20 -20 -20 -20 -20 -20 -20 -20 -10 19
-20 -20 -20 -20 -20 -20 -20 -20 -20 -20 -20 -20 -20 -20 -20 -20 -20 -20 -20 -20 -20 -4 -11 -0 -20 1 -20 -20 3 7 12 9 2 -12 -20 -20 -20 -6 -20 -20 -20 -12 19
-20 -20 -20 -20 -20 -20 -20 -20 -20 -20 -20 -20 -20 -20 -20 -20 -20 -20 -20 -20 -20 -19 -20 -20 -20 -20 -20 -4 1 6 3 4 4 -13 -20 -20 -1 -2 -20 -17 -20 3 16
-20 -20 -20 -20 -20 -20 -20 -20 -20 -20 -20 -20 -20 -20 -20 -20 -20 -20 -20 -1 1 -15 0 3 -17 -20 -20 -20 -5 3 6 10 18 1 -20 -4 -3 1 -1 -4 0 -19 14
-20 -20 -20 -20 -20 -20 -20 -20 -20 -20 -20 -20 -20 -20 -20 -16 -20 -20 -20 -20 -20 -6 -1 -16 3 -17 -20 -20 -20 -20 -20 11 12 16 9 2 -11 4 -20 2 -20 -3 -17
-20 -20 -20 -20 -20 -20 -20 -20 -20 -20 -20 -20 -20 -20 -20 -20 -20 -20 -20 0 -7 2 -10 -16 -20 -20 -19 -20 -20 -17 -20 -13 -5 16 23 3 -8 -7 5 0 -1 -1 -20
-20 -20 -20 -20 -20 -20 -20 -20 -20 -20 -20 -20 -20 -20 -20 -20 -20 -20 -20 -18 7 3 2 1 8 5 2 -5 -9 6 11 2 10 11 17 12 -6 -20 6 8 6 5 -9
Wind_Speed
7 7 6 6 6 5 5 5 5 7 4 3 3 3 3 3 3 4 7 7 7 8 6 4 5 4 3 6 7 6 7 5 2 5 2 2 1 4 11 14 14 16 13
6 7 7 6 6 6 7 7 8 7 6 3 4 4 3 4 4 3 5 6 7 7 6 6 4 5 3 4 5 6 6 4 3 3 2 3 1 3 10 14 14 17 13
8 7 7 9 8 8 8 8 8 8 7 7 2 2 2 2 2 2 4 5 7 6 6 6 5 5 3 3 5 4 4 5 6 6 4 3 4 3 5 16 14 17 12
5 4 6 6 6 8 7 7 7 7 6 6 4 5 3 4 3 3 3 5 7 7 6 6 6 5 3 4 4 5 3 3 6 8 2 8 2 4 1 10 14 15 15
6 6 6 7 7 5 5 6 5 6 5 5 5 4 4 4 4 4 6 6 6 7 7 7 6 6 4 4 4 4 4 3 5 5 6 5 1 3 3 3 6 12 13
2 5 7 7 8 7 5 5 6 7 6 4 4 5 7 7 4 5 6 5 4 5 7 8 5 5 6 5 5 5 5 4 6 6 5 5 5 1 2 1 5 11 14
5 8 9 8 9 9 7 6 6 7 5 5 5 6 7 7 8 6 5 8 5 4 5 6 7 4 5 6 5 5 5 5 5 6 5 4 6 7 5 5 5 7 9
6 8 8 8 9 8 8 7 7 7 6 6 7 7 7 4 5 6 6 6 8 6 6 6 6 7 5 5 5 4 4 5 5 7 7 5 6 6 7 6 5 6 9
8 9 9 8 9 8 8 8 7 8 7 7 6 7 6 7 7 8 6 7 7 8 8 8 9 9 7 6 6 5 6 5 6 6 7 6 6 5 7 8 8 8 10
10 9 9 10 8 8 8 6 6 8 7 7 6 7 6 7 6 6 7 7 8 9 9 8 6 6 6 6 6 6 6 7 6 6 8 8 6 7 6 6 7 8 6
12 10 11 8 8 7 6 5 6 8 7 6 7 7 7 7 6 6 8 8 9 9 11 9 7 7 8 9 8 7 7 9 9 9 9 10 9 8 7 7 6 9 8
11 10 11 10 9 9 6 6 7 7 7 7 6 7 8 7 7 8 8 9 10 10 10 11 10 10 10 9 9 10 11 11 11 11 10 11 8 10 9 7 10 9 8
12 10 9 10 12 12 7 6 7 8 7 6 6 8 10 10 10 9 9 9 10 9 10 11 12 12 12 11 11 10 11 12 12 11 11 11 11 11 9 8 10 8 9
11 8 8 10 13 8 6 6 7 6 8 8 10 11 11 11 11 11 11 10 9 11 11 11 12 13 13 13 13 13 12 12 13 13 13 13 12 12 10 9 10 9 9
7 7 8 13 14 7 6 6 8 8 9 10 12 12 12 12 12 12 12 11 11 11 13 13 12 12 13 11 13 14 13 13 13 14 13 14 15 21 17 8 10 9 10
12 11 13 13 13 6 7 7 9 10 11 11 13 13 13 13 13 12 12 12 12 12 13 14 14 14 12 23 27 22 13 15 15 14 13 14 19 21 26 27 23 12 10
12 15 15 13 7 7 5 7 9 10 11 13 14 13 13 14 14 13 13 13 13 13 13 14 15 16 16 27 28 29 17 15 15 16 14 13 12 20 15 21 26 26 26
15 13 14 7 7 4 5 8 9 10 12 13 14 14 13 14 14 14 14 14 12 13 13 13 15 16 14 28 30 30 19 17 17 16 16 16 15 16 15 14 15 14 15
8 12 8 5 5 7 7 7 10 12 13 14 14 14 13 14 15 16 16 14 15 13 13 14 16 16 15 28 30 27 17 17 20 16 17 17 16 22 27 17 15 14 15
8 10 7 6 5 9 5 9 12 12 14 15 15 15 15 15 16 17 17 15 14 15 14 15 16 22 18 26 30 28 14 17 14 16 18 30 24 27 29 19 16 16 16
11 5 5 7 9 8 6 10 12 14 15 15 15 16 15 15 16 16 15 15 15 15 15 16 15 17 18 18 30 32 18 14 13 15 14 15 32 34 33 30 18 19 12
12 7 6 8 8 7 5 11 12 14 14 15 16 16 16 13 13 16 16 16 15 16 15 15 15 14 17 25 28 33 34 27 16 16 14 16 30 32 34 28 31 25 21
11 6 7 9 7 6 6 11 15 13 15 15 16 16 16 15 15 15 16 13 13 13 13 11 12 12 12 12 28 31 32 34 23 14 20 26 28 31 29 32 30 26 12
9 7 7 8 11 6 7 11 13 13 14 16 16 15 15 16 15 12 12 13 12 10 12 12 13 12 12 12 11 12 15 30 23 24 20 22 24 25 21 21 20 15 15
10 5 9 9 11 7 10 12 12 11 13 15 14 15 12 14 14 14 12 12 13 14 13 12 12 13 13 14 18 16 12 12 16 16 11 13 13 14 13 13 15 15 14
13 10 8 8 11 7 10 12 11 10 12 14 12 12 13 12 12 11 13 22 27 29 30 31 26 16 28 30 28 29 30 29 28 16 11 11 15 15 13 15 15 15 19
Wind_Direction
220 191 193 206 207 222 240 245 234 244 222 225 231 275 239 244 256 263 267 273 275 281 275 281 292 302 327 316 318 319 314 288 281 258 219 257 244 228 270 161 157 160 161
193 215 222 227 228 237 235 243 239 240 224 193 214 194 211 238 237 243 276 278 281 276 269 264 262 279 298 312 305 320 320 285 303 309 125 175 176 250 250 160 160 163 160
203 220 213 225 239 250 245 239 238 239 236 224 220 245 284 305 316 277 282 272 278 276 265 258 254 260 273 291 294 312 315 307 319 330 315 188 175 84 242 163 164 163 161
214 246 273 276 244 249 249 255 260 253 243 237 213 216 230 252 233 256 245 275 273 273 270 261 258 254 252 251 261 287 292 294 301 315 232 292 160 140 257 167 164 165 162
242 257 249 254 256 244 242 245 248 257 254 228 212 232 259 244 256 272 276 260 272 270 264 253 237 243 241 241 247 264 275 271 280 275 317 331 63 139 162 130 237 166 168
205 293 282 284 272 269 261 260 263 269 273 262 269 254 261 273 269 270 282 273 251 262 268 264 249 217 239 230 229 234 240 256 252 270 271 271 332 332 136 193 236 184 166
341 302 299 297 283 271 264 256 250 265 272 269 265 259 247 246 254 249 256 283 268 258 257 264 261 233 217 236 225 229 232 243 244 260 276 277 268 293 312 217 233 182 154
305 297 292 294 284 273 262 259 259 266 265 268 272 269 263 241 247 238 239 256 273 254 244 248 257 256 224 226 228 223 221 228 234 248 252 263 262 275 283 302 182 225 165
288 296 296 289 285 272 257 250 252 258 262 263 266 262 255 249 253 253 239 251 258 267 251 243 249 257 256 226 226 225 231 232 241 250 258 261 263 247 263 269 290 203 171
316 307 305 296 284 270 261 261 252 259 263 262 259 269 255 253 246 247 252 237 256 260 258 254 238 245 252 244 226 230 236 236 237 243 251 255 259 265 270 274 280 240 235
308 300 310 281 281 271 268 272 274 271 272 271 267 267 267 255 250 242 252 255 254 252 259 250 240 239 247 245 239 234 235 235 240 240 245 251 251 255 254 259 266 297 198
289 288 295 303 297 286 275 283 281 276 274 275 274 270 274 272 260 259 253 256 252 250 246 256 251 246 248 245 235 238 248 243 243 241 240 248 251 252 253 255 275 260 275
300 295 301 295 300 294 275 282 283 287 295 290 279 283 286 286 278 273 270 258 259 252 245 240 249 251 250 247 245 238 239 246 244 245 242 242 240 250 253 255 246 252 306
291 286 281 290 314 276 273 285 289 294 296 296 292 291 290 286 283 280 277 268 263 265 257 240 235 246 250 251 251 247 239 236 245 240 239 241 241 239 245 242 249 263 267
292 274 290 317 316 281 292 291 294 298 300 294 291 290 290 288 284 282 277 270 261 259 260 254 243 238 242 246 247 248 247 244 239 242 238 239 242 246 246 244 244 236 251
311 315 314 311 309 279 286 293 297 300 301 296 290 290 290 289 283 281 278 273 267 256 251 250 245 239 236 246 252 250 239 243 244 240 240 242 243 247 245 248 251 248 245
307 313 314 311 283 279 276 281 288 293 293 291 289 288 288 288 286 284 279 275 269 261 254 247 240 238 236 241 247 248 248 242 237 237 235 236 237 241 240 250 248 238 246
311 311 312 288 279 275 280 282 291 288 288 286 287 288 287 287 288 287 284 282 277 268 263 255 244 239 234 238 244 244 245 248 242 239 236 233 233 233 234 239 247 250 243
284 297 289 259 276 277 269 276 292 292 293 289 290 290 291 290 291 288 284 281 281 271 262 256 250 238 233 239 239 238 237 238 247 241 234 233 231 230 238 236 241 242 244
257 278 266 273 276 285 283 293 293 292 288 289 291 293 289 285 286 284 283 281 274 268 264 258 249 243 239 237 238 234 229 229 230 233 237 240 232 230 233 233 236 240 245
294 258 263 263 269 281 277 279 284 280 283 289 289 288 287 286 282 282 280 277 273 268 262 259 254 248 242 241 243 240 227 224 219 223 226 226 233 236 230 232 229 233 238
308 283 283 270 272 256 255 273 277 281 287 289 289 288 288 287 285 284 281 274 273 269 264 264 261 254 246 242 240 238 240 229 220 221 221 223 225 230 234 232 235 235 229
283 269 253 268 264 247 236 274 282 290 290 290 290 290 291 289 286 281 278 276 275 271 267 261 261 258 247 233 235 238 240 236 237 214 222 223 226 232 230 232 231 233 235
277 270 265 269 282 275 259 257 278 286 289 288 289 291 291 291 291 286 279 275 269 266 272 264 261 258 247 234 232 231 237 235 228 227 222 221 225 223 227 226 231 227 221
294 252 275 269 272 276 276 279 276 285 288 291 293 293 288 287 287 279 275 277 274 266 266 258 260 263 247 232 223 219 219 217 223 221 228 205 214 220 224 221 222 215 213
285 273 260 266 276 269 279 282 278 280 286 291 294 294 293 291 288 292 289 280 283 283 277 272 262 255 253 242 236 234 225 222 221 220 207 214 204 209 219 213 216 212 210